Content
SEND FEEDBACK

United States of America Flag

ANDOVER, SOUTH DAKOTA


Home > North America > United States > South Dakota
Elevation: 1480 feet     Latitude: 45 31N     Longitude: 097 53W

WEATHER
 
SELECT A DAY
Number of Records: 226,997;   Date Range: 1/1/95 - 3/22/16
 
SHARE

PRINT THIS DATA

[ ← Previous Day ]
WEATHER ALMANAC - FEBRUARY 1, 2013
[ Next Day → ]
[ °C ]   °F
Weather ElementAverageHighLow
Temperature1 °F16 °F (9:53 pm)-29 °F (1:53 am)
Dewpoint-5.6 °F8.6 °F (10:21 pm)-34.1 °F (2:53 am)
Humidity74 %81 % (1:53 am)66 % (10:53 am)
Barometer30.17 in30.42 in (1:53 am)29.96 in (2:33 pm)
Wind Speed7.7 mph16.1 mph (11:53 am)
Weather ElementAverage
Visibility10 mi
Wind DirectionS (178.5 °)

Weather ElementTotal
Precipitation---
Heating Degree Days71.5 (Base 65)
Averaged from 26 records on February 1, 2013
WEATHER CONDITIONS BREAKOUT
WIND DIRECTION BREAKOUT
WEATHER BY HOUR - FEBRUARY 1, 2013
[ °C ]   °F
Local TimeTemperatureDewpointHumidityBarometerVisibilityWind DirectionWind SpeedGust SpeedPrecipitationEventsConditions
1:53 AM-29.0 °F-33.0 °F81 %30.42 in10.0 miSSW (210°)3.5 mphClear
2:53 AM-29.0 °F-34.1 °F77 %30.40 in10.0 miSSW (200°)5.8 mphClear
3:53 AM-27.9 °F-34.1 °F73 %30.38 in10.0 miCalmClear
4:53 AM-24.0 °F-29.9 °F74 %30.35 in10.0 miCalmClear
5:53 AM-18.9 °F-25.1 °F74 %30.32 in10.0 miSE (140°)4.6 mphOvercast
6:53 AM-14.1 °F-20.0 °F75 %30.29 in10.0 miSSE (160°)5.8 mphMostly Cloudy
7:53 AM-13.0 °F-18.9 °F75 %30.26 in10.0 miSSE (160°)6.9 mphMostly Cloudy
8:53 AM-7.1 °F-13.0 °F75 %30.23 in10.0 miSSE (160°)10.4 mphOvercast
9:53 AM-2.0 °F-9.0 °F72 %30.20 in10.0 miSSE (150°)11.5 mphOvercast
10:53 AM3.9 °F-5.1 °F66 %30.16 in10.0 miSouth (170°)12.7 mphOvercast
11:53 AM5.0 °F-2.9 °F70 %30.14 in10.0 miSouth (180°)16.1 mph0.00 inOvercast
12:53 PM7.0 °F0.0 °F73 %30.10 in10.0 miSouth (180°)16.1 mphOvercast
1:53 PM9.0 °F1.9 °F73 %30.07 in10.0 miSouth (180°)12.7 mphOvercast
2:33 PM10.4 °F3.2 °F73 %29.96 in10.0 miSSW (200°)9.2 mphOvercast
2:53 PM10.9 °F3.9 °F73 %30.08 in10.0 miSouth (190°)9.2 mphOvercast
3:53 PM12.0 °F5.0 °F73 %30.08 in10.0 miSSW (200°)6.9 mphOvercast
4:30 PM12.2 °F5.0 °F73 %29.96 in10.0 miSW (220°)6.9 mphOvercast
4:53 PM12.9 °F6.1 °F74 %30.08 in10.0 miSW (230°)4.6 mphOvercast
5:53 PM12.0 °F6.1 °F77 %30.09 in10.0 miCalmOvercast
6:53 PM9.0 °F3.9 °F80 %30.11 in10.0 miCalmMostly Cloudy
7:53 PM10.9 °F5.0 °F77 %30.12 in10.0 miCalmOvercast
8:53 PM14.0 °F7.0 °F74 %30.13 in10.0 miNW (320°)9.2 mphOvercast
9:53 PM16.0 °F8.1 °F71 %30.14 in10.0 miNNW (340°)15.0 mphOvercast
10:21 PM15.8 °F8.6 °F73 %30.05 in10.0 miNNW (340°)12.7 mphOvercast
10:53 PM15.1 °F8.1 °F74 %30.15 in10.0 miNorth (350°)11.5 mphOvercast
11:53 PM15.1 °F8.1 °F74 %30.17 in10.0 miNorth (360°)9.2 mphOvercast
Hourly data recorded from KABR, located miles away from Andover, South Dakota




STORIES FROM OUR PARTNERS